Location: Aalsum
(53.3404°N, 6.0062°E)
Time: 09:32:49
(UTC+00:00)

RESURS DK-1 - Pass Details

Date: 28 January 2023
Orbit: 549 x 557 km, 69.9° (Epoch: 19 March)

Event Time Altitude Azimuth Distance (km) Brightness Sun altitude
Rises 18:31:37 0° 328° (NNW) 2,740 6.3 -20.8°
Reaches altitude 10° 18:33:56 10° 337° (NNW) 1,843 5.2 -21.1°
Enters shadow 18:36:44 32° 11° (NNE) 965 3.4 -21.5°
